Location: Unspecified
(38.3360°N, 0.0000°E)
Time: 01:37:14
(UTC+00:00)

Envisat - Pass Details

Date: 29 May 2019
Orbit: 764 x 766 km, 98.1° (Epoch: 25 June)

Event Time Altitude Azimuth Distance (km) Brightness Sun altitude
Rises 19:53:01 0° 215° (SW) 3,220 6.2 -7.1°
Reaches altitude 10° 19:56:42 10° 243° (WSW) 2,300 5.9 -7.7°
Maximum altitude 19:58:55 13° 270° (W) 2,111 6.2 -8.0°
Drops below altitude 10° 20:01:09 10° 296° (WNW) 2,307 7.1 -8.4°
Sets 20:04:53 0° 324° (NW) 3,239 7.9 -9.0°
